Hettinger, ND

5:47 PM MDT on July 21, 2017 (GMT -0600)
Hettinger Municipal

Weather History for KHEI - May, 2013

Change the Weather History Date:

Tuesday, May 21, 2013

  Actual Average Record
Temperature  
Mean Temperature 45 °F -  
Max Temperature 47 °F 67 °F 85 °F (2012)
Min Temperature 42 °F 41 °F 25 °F (2017)
Degree Days  
Heating Degree Days 21    
Cooling Degree Days 0 0  
Month to date cooling degree days 7 0  
Year to date cooling degree days 7 0  
Moisture  
Dew Point 41 °F    
Average Humidity 90    
Maximum Humidity 93    
Minimum Humidity 86    
Precipitation  
Precipitation 0.14 in 0.08 in 0.74 in (2011)
Month to date precipitation 2.71 1.59  
Year to date precipitation 3.94 4.55  
Sea Level Pressure  
Sea Level Pressure 29.92 in    
Wind  
Wind Speed 16 mph (North)    
Max Wind Speed 29 mph    
Max Gust Speed 35 mph    
Visibility 8 miles    
Events Rain    
T = Trace of Precipitation, MM = Missing Value Source: NWS Daily Summary

Daily Weather History Graph

Daily Weather History Graph

Search for Another Location

Airport or City:

Trip Planner

Search our weather history database for the weather conditions in past years. The results will help you decide how hot, cold, wet, or windy it might be!

Date:

Astronomy

May. 21, 2013 Rise Set
Actual Time 5:11 AM MDT 8:23 PM MDT
Civil Twilight 4:35 AM MDT 8:59 PM MDT
Nautical Twilight 3:49 AM MDT 9:46 PM MDT
Astronomical Twilight 2:51 AM MDT 10:44 PM MDT
Moon 4:28 PM MDT 2:53 AM MDT
Length of Visible Light 16h 23m
Length of Day
15h 11m
Waxing Gibbous, 84% of the Moon is Illuminated
May 21
Waxing Gibbous
May 24
Full
May 31
Last Quarter
Jun 8
New
Jun 16
First Quarter

Hourly Weather History & Observations

Time (MDT) Temp. Windchill Dew Point Humidity Pressure Visibility Wind Dir Wind Speed Gust Speed Precip Events Conditions
12:40 AM 44.6 °F 35.9 °F 42.8 °F 93% 29.84 in 8.0 mi North 23.0 mph 34.5 mph 0.01 in Rain Light Rain
12:53 AM 45.0 °F 37.1 °F 42.1 °F 90% 29.86 in 10.0 mi North 19.6 mph 36.8 mph 0.02 in Rain Light Rain
1:04 AM 44.6 °F 35.7 °F 42.8 °F 93% 29.84 in 10.0 mi NNW 24.2 mph 32.2 mph 0.00 in   Overcast
1:29 AM 44.6 °F 35.7 °F 42.8 °F 93% 29.84 in 10.0 mi North 24.2 mph 34.5 mph 0.00 in Rain Light Rain
1:53 AM 44.1 °F 35.2 °F 41.0 °F 89% 29.86 in 10.0 mi North 23.0 mph 32.2 mph 0.00 in Rain Light Rain
2:53 AM 43.0 °F 34.5 °F 41.0 °F 93% 29.86 in 10.0 mi North 19.6 mph 33.4 mph 0.03 in   Overcast
3:22 AM 42.8 °F 34.0 °F 41.0 °F 93% 29.83 in 5.0 mi North 20.7 mph 31.1 mph 0.00 in Rain Light Rain
3:53 AM 43.0 °F 34.2 °F 41.0 °F 93% 29.86 in 5.0 mi NNW 20.7 mph 27.6 mph 0.00 in Rain Light Rain
4:53 AM 43.0 °F 34.5 °F 41.0 °F 93% 29.86 in 5.0 mi North 19.6 mph 29.9 mph 0.01 in   Overcast
5:53 AM 43.0 °F 34.5 °F 39.9 °F 89% 29.88 in 6.0 mi North 19.6 mph 29.9 mph 0.01 in Rain Light Rain
6:22 AM 42.8 °F 34.8 °F 41.0 °F 93% 29.86 in 2.5 mi North 17.3 mph 24.2 mph 0.00 in   Overcast
6:30 AM 42.8 °F 35.4 °F 41.0 °F 93% 29.86 in 6.0 mi North 15.0 mph 26.5 mph 0.00 in Rain Light Rain
6:53 AM 43.0 °F 34.5 °F 39.9 °F 89% 29.90 in 7.0 mi North 19.6 mph 27.6 mph 0.01 in Rain Light Rain
7:53 AM 43.0 °F 33.5 °F 39.9 °F 89% 29.91 in 8.0 mi North 24.2 mph 31.1 mph 0.00 in   Overcast
8:53 AM 43.0 °F 34.8 °F 39.9 °F 89% 29.92 in 9.0 mi North 18.4 mph 26.5 mph 0.01 in Rain Light Rain
9:31 AM 42.8 °F 34.8 °F 39.2 °F 87% 29.90 in 4.0 mi North 17.3 mph 26.5 mph 0.00 in Rain Light Rain
9:43 AM 42.8 °F 35.1 °F 39.2 °F 87% 29.90 in 9.0 mi North 16.1 mph 26.5 mph 0.00 in Rain Light Rain
9:50 AM 42.8 °F 34.5 °F 39.2 °F 87% 29.89 in 10.0 mi North 18.4 mph - 0.00 in   Overcast
9:53 AM 43.0 °F 34.5 °F 39.9 °F 89% 29.93 in 10.0 mi North 19.6 mph - 0.00 in   Overcast
10:34 AM 42.8 °F 34.8 °F 41.0 °F 93% 29.90 in 6.0 mi North 17.3 mph 25.3 mph 0.02 in Rain Light Rain
10:53 AM 43.0 °F 34.5 °F 39.9 °F 89% 29.94 in 10.0 mi NNW 19.6 mph 24.2 mph 0.02 in   Overcast
11:32 AM 42.8 °F 34.5 °F 41.0 °F 93% 29.92 in 4.0 mi North 18.4 mph 25.3 mph 0.01 in Rain Light Rain
11:48 AM 42.8 °F 35.1 °F 39.2 °F 87% 29.92 in 7.0 mi North 16.1 mph 28.8 mph 0.02 in Rain Light Rain
11:53 AM 43.0 °F 34.8 °F 41.0 °F 93% 29.95 in 8.0 mi North 18.4 mph 28.8 mph 0.02 in Rain Light Rain
12:06 PM 42.8 °F 34.0 °F 39.2 °F 87% 29.92 in 3.0 mi North 20.7 mph 26.5 mph 0.00 in   Overcast
12:14 PM 42.8 °F 34.0 °F 39.2 °F 87% 29.92 in 5.0 mi North 20.7 mph 26.5 mph 0.00 in   Overcast
12:53 PM 43.0 °F 35.7 °F 39.9 °F 89% 29.96 in 10.0 mi North 15.0 mph 24.2 mph 0.00 in Rain Light Rain
1:31 PM 44.6 °F 37.4 °F 41.0 °F 87% 29.93 in 7.0 mi North 16.1 mph - 0.02 in Rain Light Rain
1:53 PM 45.0 °F 37.6 °F 41.0 °F 86% 29.96 in 10.0 mi North 17.3 mph 21.9 mph 0.02 in Rain Light Rain
2:53 PM 45.0 °F 37.4 °F 41.0 °F 86% 29.96 in 10.0 mi North 18.4 mph 24.2 mph 0.00 in   Overcast
3:53 PM 45.0 °F 38.2 °F 41.0 °F 86% 29.97 in 8.0 mi North 15.0 mph - N/A   Overcast
4:32 PM 44.6 °F 38.1 °F 42.8 °F 93% 29.92 in 10.0 mi North 13.8 mph 19.6 mph N/A   Overcast
4:53 PM 46.0 °F 39.6 °F 42.1 °F 86% 29.96 in 10.0 mi NNE 15.0 mph - N/A   Overcast
5:13 PM 46.4 °F 39.5 °F 42.8 °F 87% 29.93 in 10.0 mi North 17.3 mph 23.0 mph N/A   Overcast
5:40 PM 46.4 °F 39.5 °F 42.8 °F 87% 29.93 in 9.0 mi NNE 17.3 mph - N/A   Overcast
5:53 PM 46.0 °F 39.6 °F 42.1 °F 86% 29.96 in 10.0 mi NNE 15.0 mph 25.3 mph N/A   Overcast
6:53 PM 46.0 °F 40.6 °F 43.0 °F 89% 29.97 in 7.0 mi NNE 11.5 mph - N/A   Overcast
7:00 PM 46.4 °F 40.1 °F 42.8 °F 87% 29.94 in 7.0 mi NNE 15.0 mph - N/A   Overcast
7:31 PM 46.4 °F 40.4 °F 42.8 °F 87% 29.94 in 8.0 mi NNE 13.8 mph - N/A   Overcast
7:41 PM 46.4 °F 40.1 °F 42.8 °F 87% 29.94 in 10.0 mi NNE 15.0 mph - N/A   Overcast
7:53 PM 46.0 °F 41.0 °F 43.0 °F 89% 29.97 in 10.0 mi NNE 10.4 mph - N/A   Overcast
8:53 PM 46.0 °F 41.4 °F 44.1 °F 93% 29.99 in 4.0 mi NNE 9.2 mph - N/A   Overcast
9:53 PM 46.0 °F 41.4 °F 44.1 °F 93% 30.00 in 2.5 mi NNE 9.2 mph - N/A   Overcast
10:19 PM 46.4 °F 41.1 °F 44.6 °F 93% 29.97 in 4.0 mi NE 11.5 mph - N/A   Overcast
10:53 PM 46.9 °F - 44.1 °F 90% 30.01 in 6.0 mi NNE 10.4 mph - 0.01 in   Overcast
11:53 PM 46.9 °F - 45.0 °F 93% 30.00 in 5.0 mi North 8.1 mph - N/A   Overcast